• In Hungary
  • List of Countries
  • For 7 days
  • Water Temperature
  • Satellite Maps
  • Weather Map
  • News
  • Weather Widgets
  • user-avatar
    Login

    Hourly Weather Sleza

    Today, 22 July, Sunday

    Time Temperature Precipitation Wind Pressure Humidity
    00:00 +19°C° 0 mm 2 mps 747 mmHg 73%
    01:00 +19°C° 0 mm 1 mps 747 mmHg 74%
    02:00 +19°C° 0 mm 1 mps 747 mmHg 75%
    03:00 +19°C° 0 mm 1 mps 747 mmHg 77%
    04:00 +18°C° 0 mm 1 mps 747 mmHg 78%
    05:00 +19°C° 0 mm 1 mps 747 mmHg 75%
    06:00 +20°C° 0 mm 2 mps 747 mmHg 73%
    07:00 +21°C° 0 mm 2 mps 747 mmHg 70%
    08:00 +23°C° 0 mm 2 mps 747 mmHg 66%
    09:00 +25°C° 0 mm 2 mps 747 mmHg 62%
    10:00 +26°C° 0 mm 3 mps 747 mmHg 57%
    11:00 +27°C° 0 mm 3 mps 747 mmHg 55%
    12:00 +28°C° 0 mm 3 mps 747 mmHg 52%
    13:00 +28°C° 0 mm 3 mps 747 mmHg 50%
    14:00 +28°C° 0.1 mm 3 mps 747 mmHg 50%
    15:00 +28°C° 0.1 mm 3 mps 747 mmHg 51%
    16:00 +28°C° 0.1 mm 4 mps 747 mmHg 51%
    17:00 +27°C° 0.1 mm 3 mps 747 mmHg 56%
    18:00 +25°C° 0.1 mm 3 mps 747 mmHg 62%
    19:00 +24°C° 0.1 mm 2 mps 747 mmHg 67%
    20:00 +23°C° 0 mm 2 mps 747 mmHg 68%
    21:00 +21°C° 0 mm 2 mps 748 mmHg 70%
    22:00 +20°C° 0 mm 2 mps 748 mmHg 71%
    23:00 +20°C° 0 mm 2 mps 748 mmHg 74%

    Tomorrow, 23 July, Monday

    Time Temperature Precipitation Wind Pressure Humidity
    00:00 +19°C° 0 mm 2 mps 748 mmHg 76%
    01:00 +18°C° 0 mm 2 mps 748 mmHg 79%
    02:00 +18°C° 0 mm 2 mps 748 mmHg 81%
    03:00 +18°C° 0 mm 2 mps 748 mmHg 84%
    04:00 +17°C° 0 mm 2 mps 748 mmHg 86%
    05:00 +18°C° 0 mm 2 mps 748 mmHg 83%
    06:00 +20°C° 0 mm 2 mps 749 mmHg 79%
    07:00 +21°C° 0 mm 2 mps 749 mmHg 76%
    08:00 +24°C° 0 mm 3 mps 749 mmHg 70%
    09:00 +25°C° 0 mm 3 mps 749 mmHg 64%
    10:00 +27°C° 0 mm 3 mps 749 mmHg 58%
    11:00 +27°C° 0 mm 4 mps 749 mmHg 55%
    12:00 +28°C° 0 mm 4 mps 749 mmHg 51%
    13:00 +29°C° 0 mm 4 mps 749 mmHg 48%
    14:00 +29°C° 0 mm 4 mps 749 mmHg 48%
    15:00 +29°C° 0 mm 4 mps 749 mmHg 48%
    16:00 +29°C° 0 mm 4 mps 749 mmHg 49%
    17:00 +28°C° 0 mm 3 mps 749 mmHg 55%
    18:00 +26°C° 0 mm 3 mps 749 mmHg 61%
    19:00 +25°C° 0 mm 2 mps 749 mmHg 68%
    20:00 +24°C° 0.1 mm 2 mps 750 mmHg 71%
    21:00 +23°C° 0.1 mm 2 mps 750 mmHg 74%
    22:00 +21°C° 0.1 mm 2 mps 750 mmHg 77%
    23:00 +20°C° 0 mm 2 mps 750 mmHg 80%

    Day after tomorrow, 24 July, Tuesday

    Time Temperature Precipitation Wind Pressure Humidity
    00:00 +20°C° 0 mm 2 mps 750 mmHg 82%
    01:00 +19°C° 0 mm 2 mps 750 mmHg 85%
    02:00 +19°C° 0 mm 2 mps 750 mmHg 87%
    03:00 +18°C° 0 mm 2 mps 750 mmHg 89%
    04:00 +18°C° 0 mm 2 mps 750 mmHg 91%
    05:00 +19°C° 0 mm 2 mps 750 mmHg 87%
    06:00 +20°C° 0 mm 2 mps 751 mmHg 83%
    07:00 +21°C° 0 mm 2 mps 751 mmHg 79%
    08:00 +22°C° 0 mm 3 mps 751 mmHg 73%
    09:00 +25°C° 0 mm 3 mps 751 mmHg 67%
    10:00 +26°C° 0 mm 3 mps 751 mmHg 62%
    11:00 +27°C° 0 mm 3 mps 750 mmHg 59%
    12:00 +27°C° 0 mm 4 mps 750 mmHg 56%
    13:00 +28°C° 0 mm 4 mps 750 mmHg 53%
    14:00 +28°C° 0 mm 4 mps 750 mmHg 53%
    15:00 +28°C° 0 mm 4 mps 749 mmHg 53%
    16:00 +28°C° 0 mm 4 mps 749 mmHg 53%
    17:00 +27°C° 0 mm 3 mps 749 mmHg 59%
    18:00 +26°C° 0 mm 2 mps 749 mmHg 64%
    19:00 +25°C° 0 mm 2 mps 749 mmHg 69%
    20:00 +24°C° 0 mm 2 mps 750 mmHg 73%
    21:00 +23°C° 0 mm 1 mps 750 mmHg 76%
    22:00 +21°C° 0 mm 1 mps 750 mmHg 79%
    23:00 +21°C° 0 mm 1 mps 750 mmHg 82%

    25 July, Wednesday

    Time Temperature Precipitation Wind Pressure Humidity
    00:00 +20°C° 0 mm 1 mps 750 mmHg 84%
    01:00 +20°C° 0 mm 1 mps 750 mmHg 87%
    02:00 +20°C° 0 mm 1 mps 750 mmHg 89%
    03:00 +18°C° 0 mm 2 mps 750 mmHg 91%
    04:00 +18°C° 0 mm 2 mps 750 mmHg 93%
    05:00 +19°C° 0 mm 2 mps 750 mmHg 89%
    06:00 +21°C° 0 mm 2 mps 751 mmHg 85%
    07:00 +23°C° 0 mm 2 mps 751 mmHg 81%
    08:00 +24°C° 0.3 mm 3 mps 751 mmHg 75%
    09:00 +26°C° 0.3 mm 3 mps 751 mmHg 69%
    10:00 +27°C° 0.3 mm 3 mps 751 mmHg 63%
    11:00 +28°C° 0 mm 3 mps 751 mmHg 58%
    12:00 +28°C° 0 mm 4 mps 750 mmHg 54%
    13:00 +29°C° 0 mm 4 mps 750 mmHg 49%
    14:00 +29°C° 0 mm 4 mps 750 mmHg 49%
    15:00 +29°C° 0 mm 4 mps 750 mmHg 48%
    16:00 +29°C° 0 mm 3 mps 750 mmHg 48%
    17:00 +28°C° 0 mm 3 mps 750 mmHg 53%
    18:00 +27°C° 0 mm 2 mps 750 mmHg 59%
    19:00 +26°C° 0 mm 2 mps 750 mmHg 64%
    20:00 +25°C° 0 mm 1 mps 750 mmHg 66%
    21:00 +23°C° 0 mm 1 mps 750 mmHg 69%
    22:00 +22°C° 0 mm 1 mps 751 mmHg 71%
    23:00 +22°C° 0 mm 1 mps 751 mmHg 73%

    26 July, Thursday

    Time Temperature Precipitation Wind Pressure Humidity
    00:00 +21°C° 0 mm 1 mps 751 mmHg 75%
    01:00 +21°C° 0 mm 1 mps 751 mmHg 77%
    02:00 +20°C° 0 mm 1 mps 751 mmHg 80%
    03:00 +20°C° 0 mm 1 mps 751 mmHg 84%
    04:00 +19°C° 0 mm 1 mps 751 mmHg 87%
    05:00 +21°C° 0 mm 1 mps 751 mmHg 83%
    06:00 +21°C° 0 mm 2 mps 751 mmHg 79%
    07:00 +24°C° 0 mm 2 mps 751 mmHg 76%
    08:00 +25°C° 0 mm 2 mps 751 mmHg 70%
    09:00 +26°C° 0 mm 2 mps 751 mmHg 64%
    10:00 +28°C° 0 mm 3 mps 751 mmHg 58%
    11:00 +28°C° 0 mm 3 mps 751 mmHg 54%
    12:00 +29°C° 0 mm 3 mps 751 mmHg 51%
    13:00 +30°C° 0 mm 3 mps 751 mmHg 48%
    14:00 +30°C° 0 mm 3 mps 751 mmHg 48%
    15:00 +30°C° 0 mm 4 mps 750 mmHg 48%
    16:00 +30°C° 0 mm 4 mps 750 mmHg 48%
    17:00 +29°C° 0.1 mm 3 mps 750 mmHg 55%
    18:00 +27°C° 0.1 mm 3 mps 750 mmHg 62%
    19:00 +26°C° 0.1 mm 2 mps 750 mmHg 68%
    20:00 +25°C° 0 mm 2 mps 751 mmHg 73%
    21:00 +23°C° 0 mm 2 mps 751 mmHg 78%
    22:00 +21°C° 0 mm 2 mps 751 mmHg 83%
    23:00 +21°C° 0 mm 2 mps 751 mmHg 85%

    27 July, Friday

    Time Temperature Precipitation Wind Pressure Humidity
    00:00 +21°C° 0 mm 1 mps 751 mmHg 87%
    01:00 +21°C° 0 mm 1 mps 751 mmHg 90%
    02:00 +21°C° 0 mm 1 mps 751 mmHg 91%
    03:00 +20°C° 0 mm 1 mps 751 mmHg 92%
    04:00 +19°C° 0 mm 2 mps 751 mmHg 93%
    05:00 +20°C° 0 mm 2 mps 751 mmHg 90%
    06:00 +21°C° 0 mm 2 mps 751 mmHg 87%
    07:00 +23°C° 0 mm 2 mps 751 mmHg 83%
    08:00 +24°C° 0 mm 2 mps 751 mmHg 78%
    09:00 +25°C° 0 mm 2 mps 751 mmHg 74%
    10:00 +26°C° 0 mm 2 mps 751 mmHg 69%
    11:00 +27°C° 0.3 mm 3 mps 751 mmHg 66%
    12:00 +28°C° 0.3 mm 3 mps 750 mmHg 62%
    13:00 +29°C° 0.3 mm 3 mps 750 mmHg 59%
    14:00 +29°C° 0.8 mm 3 mps 750 mmHg 59%
    15:00 +29°C° 0.8 mm 2 mps 750 mmHg 59%
    16:00 +29°C° 0.8 mm 2 mps 750 mmHg 59%
    17:00 +28°C° 0 mm 2 mps 750 mmHg 63%
    18:00 +27°C° 0 mm 1 mps 750 mmHg 68%
    19:00 +27°C° 0 mm 1 mps 750 mmHg 72%
    20:00 +25°C° 0.1 mm 1 mps 750 mmHg 75%
    21:00 +24°C° 0.1 mm 1 mps 750 mmHg 78%
    22:00 +23°C° 0.1 mm 1 mps 750 mmHg 81%
    23:00 +23°C° 0 mm 1 mps 750 mmHg 82%
    Show more